Wetterdaten: Woche 17.02.14 - 23.02.14 (KW8)
Datum Zeit Temperatur Luftfeuchte Luftdruck Niederschlag Windrichtung Sonnenschein Solar Wind
17.02.2014 00:00 1,7 C 92 % 1014,1 hPa 0,0 l/m N 0,00 h 0 W/m 0,3 km/h (0 Bft)
17.02.2014 01:00 1,4 C 94 % 1014,2 hPa 0,0 l/m N 0,00 h 0 W/m 0,1 km/h (0 Bft)
17.02.2014 02:00 1,3 C 94 % 1013,8 hPa 0,0 l/m N 0,00 h 0 W/m 0,1 km/h (0 Bft)
17.02.2014 03:00 1,0 C 95 % 1014,1 hPa 0,0 l/m N 0,00 h 0 W/m 0,5 km/h (0 Bft)
17.02.2014 04:00 0,6 C 95 % 1014,3 hPa 0,0 l/m N 0,00 h 0 W/m 0,0 km/h (0 Bft)
17.02.2014 05:00 -0,0 C 95 % 1014,5 hPa 0,0 l/m N 0,00 h 0 W/m 0,0 km/h (0 Bft)
17.02.2014 06:00 -0,6 C 95 % 1014,6 hPa 0,0 l/m N 0,00 h 0 W/m 0,0 km/h (0 Bft)
17.02.2014 07:00 -1,0 C 96 % 1014,6 hPa 0,0 l/m N 0,00 h 8 W/m 0,0 km/h (0 Bft)
17.02.2014 08:00 -1,2 C 96 % 1015,2 hPa 0,0 l/m N 0,00 h 36 W/m 0,4 km/h (0 Bft)
17.02.2014 09:00 0,3 C 98 % 1015,7 hPa 0,0 l/m N 0,50 h 176 W/m 0,8 km/h (0 Bft)
17.02.2014 10:00 2,4 C 98 % 1015,8 hPa 0,0 l/m S-SW 0,42 h 213 W/m 3,7 km/h (1 Bft)
17.02.2014 11:00 4,5 C 90 % 1016,2 hPa 0,0 l/m S-SW 0,92 h 433 W/m 4,3 km/h (1 Bft)
17.02.2014 12:00 6,7 C 77 % 1015,9 hPa 0,0 l/m S-SW 1,00 h 564 W/m 5,1 km/h (1 Bft)
17.02.2014 13:00 7,7 C 69 % 1015,6 hPa 0,0 l/m O-SO 0,92 h 486 W/m 8,9 km/h (2 Bft)
17.02.2014 14:00 8,6 C 65 % 1015,6 hPa 0,0 l/m SO 1,00 h 456 W/m 6,4 km/h (2 Bft)
17.02.2014 15:00 7,7 C 67 % 1015,9 hPa 0,0 l/m S 0,08 h 70 W/m 5,5 km/h (1 Bft)
17.02.2014 16:00 7,5 C 69 % 1016,1 hPa 0,0 l/m S-SO 0,08 h 64 W/m 5,9 km/h (2 Bft)
17.02.2014 17:00 6,7 C 72 % 1016,2 hPa 0,0 l/m S-SO 0,00 h 16 W/m 2,7 km/h (1 Bft)
17.02.2014 18:00 5,2 C 79 % 1016,5 hPa 0,0 l/m N 0,00 h 0 W/m 0,5 km/h (0 Bft)
17.02.2014 19:00 3,1 C 87 % 1016,7 hPa 0,0 l/m N 0,00 h 0 W/m 0,7 km/h (0 Bft)
17.02.2014 20:00 1,6 C 91 % 1017,0 hPa 0,0 l/m N 0,00 h 0 W/m 0,3 km/h (0 Bft)
17.02.2014 21:00 0,8 C 92 % 1017,4 hPa 0,0 l/m N 0,00 h 0 W/m 0,0 km/h (0 Bft)
17.02.2014 22:00 0,3 C 92 % 1017,4 hPa 0,0 l/m N 0,00 h 0 W/m 0,0 km/h (0 Bft)
17.02.2014 23:00 -0,2 C 93 % 1017,1 hPa 0,0 l/m N 0,00 h 0 W/m 0,8 km/h (0 Bft)
18.02.2014 00:00 -0,4 C 94 % 1016,9 hPa 0,0 l/m S-SO 0,00 h 0 W/m 2,4 km/h (1 Bft)
18.02.2014 01:00 -0,4 C 95 % 1017,2 hPa 0,0 l/m S-SO 0,00 h 0 W/m 2,7 km/h (1 Bft)
18.02.2014 02:00 -0,6 C 95 % 1016,9 hPa 0,0 l/m N 0,00 h 0 W/m 0,5 km/h (0 Bft)
18.02.2014 03:00 -0,7 C 95 % 1017,0 hPa 0,0 l/m N 0,00 h 0 W/m 0,7 km/h (0 Bft)
18.02.2014 04:00 -0,8 C 96 % 1017,0 hPa 0,0 l/m N 0,00 h 0 W/m 0,9 km/h (0 Bft)
18.02.2014 05:00 -1,1 C 95 % 1016,9 hPa 0,0 l/m N 0,00 h 0 W/m 0,4 km/h (0 Bft)
18.02.2014 06:00 -1,2 C 96 % 1017,0 hPa 0,0 l/m N 0,00 h 0 W/m 0,5 km/h (0 Bft)
18.02.2014 07:00 -1,6 C 96 % 1017,3 hPa 0,0 l/m N 0,00 h 12 W/m 0,0 km/h (0 Bft)
18.02.2014 08:00 -1,8 C 96 % 1017,1 hPa 0,0 l/m N 0,00 h 47 W/m 0,0 km/h (0 Bft)
18.02.2014 09:00 -0,8 C 97 % 1017,0 hPa 0,2 l/m N 0,00 h 97 W/m 0,4 km/h (0 Bft)
18.02.2014 10:00 1,1 C 95 % 1016,7 hPa 0,0 l/m N 0,25 h 202 W/m 1,3 km/h (1 Bft)
18.02.2014 11:00 3,1 C 91 % 1016,3 hPa 0,0 l/m N 0,75 h 336 W/m 1,6 km/h (1 Bft)
18.02.2014 12:00 5,7 C 84 % 1015,6 hPa 0,0 l/m S-SO 0,83 h 375 W/m 5,5 km/h (1 Bft)
18.02.2014 13:00 6,9 C 76 % 1015,0 hPa 0,0 l/m S-SW 0,25 h 224 W/m 9,4 km/h (2 Bft)
18.02.2014 14:00 7,6 C 71 % 1014,5 hPa 0,0 l/m SW 0,33 h 202 W/m 6,5 km/h (2 Bft)
18.02.2014 15:00 8,1 C 72 % 1014,1 hPa 0,0 l/m S-SW 0,58 h 196 W/m 6,8 km/h (2 Bft)
18.02.2014 16:00 8,0 C 74 % 1013,8 hPa 0,0 l/m S-SW 0,33 h 85 W/m 3,2 km/h (1 Bft)
18.02.2014 17:00 6,8 C 79 % 1013,7 hPa 0,0 l/m N 0,00 h 20 W/m 0,1 km/h (0 Bft)
18.02.2014 18:00 4,9 C 86 % 1013,9 hPa 0,0 l/m N 0,00 h 0 W/m 0,0 km/h (0 Bft)
18.02.2014 19:00 3,7 C 88 % 1014,0 hPa 0,0 l/m N 0,00 h 0 W/m 0,1 km/h (0 Bft)
18.02.2014 20:00 3,2 C 89 % 1013,8 hPa 0,0 l/m N 0,00 h 0 W/m 0,0 km/h (0 Bft)
18.02.2014 21:00 2,8 C 90 % 1014,0 hPa 0,0 l/m S-SW 0,00 h 0 W/m 1,6 km/h (1 Bft)
18.02.2014 22:00 2,3 C 91 % 1014,0 hPa 0,0 l/m N 0,00 h 0 W/m 0,7 km/h (0 Bft)
18.02.2014 23:00 1,9 C 92 % 1014,3 hPa 0,0 l/m N 0,00 h 0 W/m 0,0 km/h (0 Bft)
19.02.2014 00:00 1,5 C 93 % 1014,3 hPa 0,0 l/m N 0,00 h 0 W/m 0,0 km/h (0 Bft)
19.02.2014 01:00 1,3 C 94 % 1014,5 hPa 0,0 l/m N 0,00 h 0 W/m 0,3 km/h (0 Bft)
19.02.2014 02:00 1,5 C 95 % 1014,5 hPa 0,0 l/m S-SW 0,00 h 0 W/m 4,8 km/h (1 Bft)
19.02.2014 03:00 1,9 C 96 % 1014,3 hPa 0,0 l/m S-SW 0,00 h 0 W/m 4,0 km/h (1 Bft)
19.02.2014 04:00 2,2 C 96 % 1014,5 hPa 0,0 l/m N 0,00 h 0 W/m 0,4 km/h (0 Bft)
19.02.2014 05:00 2,1 C 96 % 1014,8 hPa 0,0 l/m S-SW 0,00 h 0 W/m 0,9 km/h (0 Bft)
19.02.2014 06:00 2,3 C 96 % 1014,9 hPa 0,0 l/m S-SW 0,00 h 0 W/m 5,3 km/h (1 Bft)
19.02.2014 07:00 2,5 C 96 % 1014,9 hPa 0,0 l/m S-SW 0,00 h 9 W/m 3,5 km/h (1 Bft)
19.02.2014 08:00 2,5 C 96 % 1015,0 hPa 0,0 l/m N 0,00 h 25 W/m 2,0 km/h (1 Bft)
19.02.2014 09:00 3,1 C 96 % 1015,3 hPa 0,0 l/m S-SW 0,00 h 51 W/m 2,3 km/h (1 Bft)
19.02.2014 10:00 4,3 C 95 % 1015,5 hPa 0,0 l/m S-SW 0,00 h 57 W/m 5,2 km/h (1 Bft)
19.02.2014 11:00 5,1 C 91 % 1015,6 hPa 0,0 l/m S-SW 0,00 h 61 W/m 6,3 km/h (2 Bft)
19.02.2014 12:00 5,8 C 87 % 1015,5 hPa 0,0 l/m S-SW 0,00 h 122 W/m 10,4 km/h (2 Bft)
19.02.2014 13:00 6,2 C 87 % 1015,3 hPa 0,0 l/m S-SW 0,00 h 105 W/m 11,8 km/h (2 Bft)
19.02.2014 14:00 6,4 C 87 % 1014,9 hPa 0,0 l/m SW 0,00 h 97 W/m 13,0 km/h (3 Bft)
19.02.2014 15:00 6,6 C 85 % 1014,9 hPa 0,0 l/m SW 0,00 h 79 W/m 11,6 km/h (2 Bft)
19.02.2014 16:00 6,3 C 86 % 1015,2 hPa 0,0 l/m W-SW 0,00 h 22 W/m 9,9 km/h (2 Bft)
19.02.2014 17:00 5,9 C 87 % 1015,5 hPa 0,0 l/m W-SW 0,00 h 6 W/m 8,4 km/h (2 Bft)
19.02.2014 18:00 5,6 C 89 % 1015,8 hPa 0,0 l/m W-SW 0,00 h 0 W/m 5,1 km/h (1 Bft)
19.02.2014 19:00 5,0 C 92 % 1015,9 hPa 0,0 l/m W-SW 0,00 h 0 W/m 8,8 km/h (2 Bft)
19.02.2014 20:00 4,5 C 93 % 1016,2 hPa 0,0 l/m SW 0,00 h 0 W/m 8,7 km/h (2 Bft)
19.02.2014 21:00 4,2 C 94 % 1016,3 hPa 0,0 l/m N 0,00 h 0 W/m 2,1 km/h (1 Bft)
19.02.2014 22:00 3,8 C 94 % 1016,4 hPa 0,0 l/m SW 0,00 h 0 W/m 2,9 km/h (1 Bft)
19.02.2014 23:00 3,4 C 95 % 1016,4 hPa 0,0 l/m N 0,00 h 0 W/m 1,2 km/h (1 Bft)
20.02.2014 00:00 3,3 C 95 % 1016,4 hPa 0,0 l/m SW 0,00 h 0 W/m 4,0 km/h (1 Bft)
20.02.2014 01:00 3,8 C 96 % 1016,5 hPa 0,0 l/m SW 0,00 h 0 W/m 5,1 km/h (1 Bft)
20.02.2014 02:00 3,5 C 95 % 1016,5 hPa 0,0 l/m N 0,00 h 0 W/m 2,9 km/h (1 Bft)
20.02.2014 03:00 3,1 C 95 % 1016,4 hPa 0,0 l/m N 0,00 h 0 W/m 0,3 km/h (0 Bft)
20.02.2014 04:00 2,8 C 95 % 1016,4 hPa 0,0 l/m N 0,00 h 0 W/m 0,4 km/h (0 Bft)
20.02.2014 05:00 2,2 C 95 % 1016,3 hPa 0,0 l/m N 0,00 h 0 W/m 0,8 km/h (0 Bft)
20.02.2014 06:00 1,7 C 96 % 1016,2 hPa 0,0 l/m N 0,00 h 0 W/m 1,5 km/h (1 Bft)
20.02.2014 07:00 1,6 C 96 % 1016,2 hPa 0,0 l/m N 0,00 h 11 W/m 0,1 km/h (0 Bft)
20.02.2014 08:00 1,3 C 97 % 1016,0 hPa 0,0 l/m N 0,00 h 49 W/m 0,8 km/h (0 Bft)
20.02.2014 09:00 2,0 C 98 % 1015,8 hPa 0,0 l/m N 0,33 h 158 W/m 1,6 km/h (1 Bft)
20.02.2014 10:00 5,0 C 96 % 1015,4 hPa 0,0 l/m SW 1,00 h 409 W/m 8,9 km/h (2 Bft)
20.02.2014 11:00 7,3 C 83 % 1014,9 hPa 0,0 l/m SW 0,50 h 279 W/m 13,4 km/h (3 Bft)
20.02.2014 12:00 7,5 C 79 % 1014,1 hPa 0,0 l/m SW 0,17 h 213 W/m 10,5 km/h (2 Bft)
20.02.2014 13:00 8,4 C 74 % 1012,9 hPa 0,0 l/m SW 0,58 h 376 W/m 12,0 km/h (2 Bft)
20.02.2014 14:00 9,3 C 69 % 1012,3 hPa 0,0 l/m S-SW 0,58 h 294 W/m 13,8 km/h (3 Bft)
20.02.2014 15:00 9,8 C 65 % 1011,8 hPa 0,0 l/m SW 0,92 h 319 W/m 12,6 km/h (3 Bft)
20.02.2014 16:00 9,3 C 64 % 1011,4 hPa 0,0 l/m SW 1,00 h 178 W/m 13,4 km/h (3 Bft)
20.02.2014 17:00 7,8 C 66 % 1011,2 hPa 0,0 l/m SW 0,33 h 28 W/m 6,0 km/h (2 Bft)
20.02.2014 18:00 5,1 C 77 % 1011,2 hPa 0,0 l/m SW 0,00 h 0 W/m 2,7 km/h (1 Bft)
20.02.2014 19:00 3,5 C 84 % 1011,0 hPa 0,0 l/m N 0,00 h 0 W/m 0,9 km/h (0 Bft)
20.02.2014 20:00 2,0 C 90 % 1010,8 hPa 0,0 l/m N 0,00 h 0 W/m 0,0 km/h (0 Bft)
20.02.2014 21:00 0,9 C 92 % 1010,7 hPa 0,0 l/m N 0,00 h 0 W/m 0,0 km/h (0 Bft)
20.02.2014 22:00 0,5 C 94 % 1010,7 hPa 0,0 l/m N 0,00 h 0 W/m 0,4 km/h (0 Bft)
20.02.2014 23:00 0,4 C 94 % 1010,3 hPa 0,0 l/m SW 0,00 h 0 W/m 4,4 km/h (1 Bft)
21.02.2014 00:00 0,8 C 94 % 1010,2 hPa 0,0 l/m SW 0,00 h 0 W/m 1,9 km/h (1 Bft)
21.02.2014 01:00 1,4 C 93 % 1010,2 hPa 0,2 l/m SW 0,00 h 0 W/m 4,8 km/h (1 Bft)
21.02.2014 02:00 2,9 C 95 % 1010,3 hPa 2,2 l/m SW 0,00 h 0 W/m 12,7 km/h (3 Bft)
21.02.2014 03:00 2,5 C 96 % 1009,9 hPa 0,2 l/m S-SW 0,00 h 0 W/m 14,9 km/h (3 Bft)
21.02.2014 04:00 2,8 C 97 % 1009,7 hPa 0,4 l/m SW 0,00 h 0 W/m 14,0 km/h (3 Bft)
21.02.2014 05:00 3,6 C 97 % 1009,6 hPa 0,2 l/m SW 0,00 h 0 W/m 19,3 km/h (3 Bft)
21.02.2014 06:00 3,7 C 96 % 1009,6 hPa 0,0 l/m W-SW 0,00 h 0 W/m 15,7 km/h (3 Bft)
21.02.2014 07:00 3,7 C 95 % 1009,0 hPa 0,0 l/m SW 0,00 h 9 W/m 11,1 km/h (2 Bft)
21.02.2014 08:00 4,0 C 95 % 1009,0 hPa 0,0 l/m SW 0,00 h 31 W/m 14,1 km/h (3 Bft)
21.02.2014 09:00 4,7 C 92 % 1009,5 hPa 0,0 l/m SW 0,00 h 43 W/m 12,8 km/h (3 Bft)
21.02.2014 10:00 5,0 C 93 % 1010,1 hPa 0,8 l/m SW 0,00 h 52 W/m 9,8 km/h (2 Bft)
21.02.2014 11:00 5,2 C 95 % 1010,8 hPa 2,6 l/m W-SW 0,00 h 79 W/m 11,5 km/h (2 Bft)
21.02.2014 12:00 5,8 C 95 % 1010,5 hPa 0,0 l/m W-SW 0,08 h 157 W/m 13,3 km/h (3 Bft)
21.02.2014 13:00 6,3 C 93 % 1010,3 hPa 0,0 l/m W-SW 0,00 h 161 W/m 20,4 km/h (4 Bft)
21.02.2014 14:00 6,2 C 90 % 1010,6 hPa 0,0 l/m W-SW 0,00 h 87 W/m 23,7 km/h (4 Bft)
21.02.2014 15:00 5,7 C 85 % 1010,9 hPa 0,0 l/m W-SW 0,00 h 80 W/m 24,8 km/h (4 Bft)
21.02.2014 16:00 5,4 C 86 % 1011,2 hPa 0,0 l/m W-SW 0,00 h 44 W/m 20,4 km/h (4 Bft)
21.02.2014 17:00 4,8 C 89 % 1011,6 hPa 0,0 l/m SW 0,00 h 16 W/m 15,6 km/h (3 Bft)
21.02.2014 18:00 4,1 C 90 % 1012,4 hPa 0,0 l/m SW 0,00 h 0 W/m 11,6 km/h (2 Bft)
21.02.2014 19:00 3,6 C 92 % 1012,9 hPa 0,0 l/m SW 0,00 h 0 W/m 11,2 km/h (2 Bft)
21.02.2014 20:00 3,2 C 93 % 1013,2 hPa 0,0 l/m SW 0,00 h 0 W/m 9,6 km/h (2 Bft)
21.02.2014 21:00 2,7 C 94 % 1013,7 hPa 0,0 l/m W-SW 0,00 h 0 W/m 11,5 km/h (2 Bft)
21.02.2014 22:00 2,6 C 93 % 1014,0 hPa 0,0 l/m W-SW 0,00 h 0 W/m 10,2 km/h (2 Bft)
21.02.2014 23:00 2,2 C 93 % 1014,4 hPa 0,0 l/m W-SW 0,00 h 0 W/m 3,2 km/h (1 Bft)
22.02.2014 00:00 1,3 C 94 % 1014,5 hPa 0,0 l/m N 0,00 h 0 W/m 0,0 km/h (0 Bft)
22.02.2014 01:00 0,7 C 94 % 1014,8 hPa 0,0 l/m N 0,00 h 0 W/m 0,3 km/h (0 Bft)
22.02.2014 02:00 0,2 C 95 % 1014,9 hPa 0,0 l/m N 0,00 h 0 W/m 0,0 km/h (0 Bft)
22.02.2014 03:00 -0,2 C 96 % 1014,9 hPa 0,0 l/m N 0,00 h 0 W/m 0,9 km/h (0 Bft)
22.02.2014 04:00 -0,2 C 97 % 1015,1 hPa 0,0 l/m N 0,00 h 0 W/m 0,3 km/h (0 Bft)
22.02.2014 05:00 0,1 C 97 % 1015,6 hPa 0,0 l/m N 0,00 h 0 W/m 1,1 km/h (0 Bft)
22.02.2014 06:00 0,3 C 98 % 1015,9 hPa 0,0 l/m N 0,00 h 0 W/m 0,4 km/h (0 Bft)
22.02.2014 07:00 0,6 C 98 % 1016,2 hPa 0,0 l/m N 0,00 h 12 W/m 0,5 km/h (0 Bft)
22.02.2014 08:00 1,2 C 98 % 1016,6 hPa 0,0 l/m W-SW 0,08 h 73 W/m 6,4 km/h (2 Bft)
22.02.2014 09:00 2,7 C 96 % 1017,0 hPa 0,0 l/m SW 0,83 h 308 W/m 15,8 km/h (3 Bft)
22.02.2014 10:00 5,0 C 82 % 1017,2 hPa 0,0 l/m W-SW 0,92 h 393 W/m 19,4 km/h (3 Bft)
22.02.2014 11:00 6,0 C 72 % 1017,2 hPa 0,0 l/m W 0,92 h 500 W/m 23,9 km/h (4 Bft)
22.02.2014 12:00 5,8 C 69 % 1017,1 hPa 0,0 l/m W-SW 0,25 h 213 W/m 20,2 km/h (4 Bft)
22.02.2014 13:00 6,5 C 64 % 1016,9 hPa 0,0 l/m W 0,42 h 334 W/m 24,3 km/h (4 Bft)
22.02.2014 14:00 6,6 C 65 % 1016,8 hPa 0,0 l/m W 0,58 h 330 W/m 15,4 km/h (3 Bft)
22.02.2014 15:00 6,8 C 64 % 1016,8 hPa 0,0 l/m W-SW 0,25 h 184 W/m 13,9 km/h (3 Bft)
22.02.2014 16:00 6,4 C 64 % 1017,0 hPa 0,0 l/m SW 0,17 h 81 W/m 13,7 km/h (3 Bft)
22.02.2014 17:00 5,7 C 67 % 1017,2 hPa 0,0 l/m W-SW 0,00 h 13 W/m 7,4 km/h (2 Bft)
22.02.2014 18:00 4,8 C 72 % 1017,7 hPa 0,0 l/m W 0,00 h 0 W/m 3,1 km/h (1 Bft)
22.02.2014 19:00 5,0 C 72 % 1018,6 hPa 0,0 l/m W 0,00 h 0 W/m 12,1 km/h (2 Bft)
22.02.2014 20:00 3,7 C 86 % 1019,1 hPa 0,2 l/m W 0,00 h 0 W/m 10,3 km/h (2 Bft)
22.02.2014 21:00 2,9 C 93 % 1019,5 hPa 0,4 l/m SW 0,00 h 0 W/m 6,6 km/h (2 Bft)
22.02.2014 22:00 2,6 C 95 % 1019,9 hPa 0,4 l/m SW 0,00 h 0 W/m 10,9 km/h (2 Bft)
22.02.2014 23:00 2,4 C 96 % 1020,4 hPa 0,0 l/m SW 0,00 h 0 W/m 9,1 km/h (2 Bft)
23.02.2014 00:00 2,4 C 97 % 1020,9 hPa 0,0 l/m SW 0,00 h 0 W/m 4,3 km/h (1 Bft)
23.02.2014 01:00 2,4 C 97 % 1021,2 hPa 0,0 l/m SW 0,00 h 0 W/m 4,4 km/h (1 Bft)
23.02.2014 02:00 2,3 C 97 % 1021,5 hPa 0,0 l/m SW 0,00 h 0 W/m 4,5 km/h (1 Bft)
23.02.2014 03:00 2,4 C 97 % 1021,9 hPa 0,0 l/m SW 0,00 h 0 W/m 1,6 km/h (1 Bft)
23.02.2014 04:00 2,5 C 97 % 1022,1 hPa 0,0 l/m SW 0,00 h 0 W/m 3,7 km/h (1 Bft)
23.02.2014 05:00 2,6 C 98 % 1022,5 hPa 0,0 l/m SW 0,00 h 0 W/m 3,9 km/h (1 Bft)
23.02.2014 06:00 2,6 C 98 % 1022,8 hPa 0,0 l/m SW 0,00 h 0 W/m 5,2 km/h (1 Bft)
23.02.2014 07:00 2,4 C 97 % 1023,1 hPa 0,0 l/m SW 0,00 h 11 W/m 3,9 km/h (1 Bft)
23.02.2014 08:00 2,5 C 98 % 1023,4 hPa 0,0 l/m SW 0,08 h 67 W/m 5,2 km/h (1 Bft)
23.02.2014 09:00 3,1 C 98 % 1023,6 hPa 0,0 l/m SW 0,17 h 129 W/m 8,3 km/h (2 Bft)
23.02.2014 10:00 4,2 C 92 % 1023,6 hPa 0,0 l/m SW 0,17 h 178 W/m 7,9 km/h (2 Bft)
23.02.2014 11:00 5,1 C 85 % 1023,6 hPa 0,0 l/m W-SW 0,00 h 179 W/m 10,8 km/h (2 Bft)
23.02.2014 12:00 6,3 C 79 % 1023,2 hPa 0,0 l/m SW 0,42 h 368 W/m 10,1 km/h (2 Bft)
23.02.2014 13:00 7,2 C 74 % 1022,3 hPa 0,0 l/m W-SW 0,42 h 342 W/m 10,8 km/h (2 Bft)
23.02.2014 14:00 8,3 C 69 % 1021,5 hPa 0,0 l/m W 0,75 h 409 W/m 9,1 km/h (2 Bft)
23.02.2014 15:00 8,8 C 66 % 1020,9 hPa 0,0 l/m S-SW 0,83 h 331 W/m 10,9 km/h (2 Bft)
23.02.2014 16:00 8,6 C 67 % 1020,6 hPa 0,0 l/m S-SW 1,00 h 211 W/m 6,0 km/h (2 Bft)
23.02.2014 17:00 7,0 C 72 % 1020,3 hPa 0,0 l/m N 0,42 h 37 W/m 1,1 km/h (0 Bft)
23.02.2014 18:00 4,4 C 82 % 1020,6 hPa 0,0 l/m N 0,00 h 0 W/m 0,9 km/h (0 Bft)
23.02.2014 19:00 3,0 C 87 % 1020,6 hPa 0,0 l/m N 0,00 h 0 W/m 0,8 km/h (0 Bft)
23.02.2014 20:00 2,0 C 90 % 1020,4 hPa 0,0 l/m N 0,00 h 0 W/m 1,3 km/h (1 Bft)
23.02.2014 21:00 1,6 C 91 % 1020,3 hPa 0,0 l/m N 0,00 h 0 W/m 2,7 km/h (1 Bft)
23.02.2014 22:00 1,2 C 91 % 1020,1 hPa 0,0 l/m N 0,00 h 0 W/m 3,1 km/h (1 Bft)
23.02.2014 23:00 0,5 C 92 % 1019,9 hPa 0,0 l/m N 0,00 h 0 W/m 2,7 km/h (1 Bft)
Min-Datum _ 18.02.14 22.02.14 21.02.14 - - - - 17.02.14
_ Min-Zeit 07:50 13:35 07:25 - - - - 00:00
Minimum _ -1,8 C 61 % 1008,9 hPa - - - - 0,0 km/h (0 Bft)
Max-Datum _ 20.02.14 20.02.14 23.02.14 21.02.14 - 17.02.14 23.02.14 22.02.14
_ Max-Zeit 15:25 09:50 09:55 11:20 - 09:20 13:10 13:25
Maximum _ 10,1 C 99 % 1023,7 hPa 2,6 l/m - 0,08 h 696 W/m 33,8 km/h
W-SW (5 Bft)
Durchschnitt _ 3,5 C 89 % 1015,7 hPa #7,8 l/m SW #22:25 h 165 W/m 5,9 km/h (2 Bft)